Date String (YYYY-MM-DD hh:mm:ss) UTC,Instrument flags,Ambient pressure (hPa),Sample flow (lpm),Bypass flow (lpm),Sample temperature (°C),Ambient temperature (°C),ASC tube jacket temperature (°C),LED temperature (°C),Box temperature (°C),Sample RH (%),Span deviation,Mass concentration (μg/m³),Mass concentration (μg/m³),Mass concentration (μg/m³)
DateTimeUTC,F1_M11,P_M11,Q1_M11,Q2_M11,T1_M11,T2_M11,T3_M11,T4_M11,T5_M11,U1_M11,ZSPAN_M11,X0_M11,X2_M11,X1_M11
2022-06-21 03:00:00,,0826.2,4.99,0.00,29.5,27.6,00.0,38.2,31.2,05.2,0000.0,0009.25,0003.45,0001.74
2022-06-21 03:01:00,,0826.2,5.00,0.00,29.5,27.3,00.0,38.2,31.2,05.2,0000.0,0009.09,0003.41,0001.75
2022-06-21 03:02:00,,0826.2,5.01,0.00,29.4,27.3,00.0,38.2,31.1,05.2,0000.0,0008.97,0003.43,0001.77
2022-06-21 03:03:00,,0826.2,4.99,0.00,29.4,27.4,00.0,38.2,31.1,05.3,0000.0,0008.62,0003.42,0001.80
2022-06-21 03:04:00,,0826.2,5.00,0.00,29.4,27.5,00.0,38.2,31.1,05.2,0000.0,0008.52,0003.39,0001.80
2022-06-21 03:05:00,,0826.3,5.00,0.00,29.4,27.7,00.0,38.2,31.2,05.2,0000.0,0008.73,0003.45,0001.82
2022-06-21 03:06:00,,0826.4,5.01,0.00,29.4,27.8,00.0,38.2,31.2,05.3,0000.0,0009.05,0003.49,0001.83
2022-06-21 03:07:00,,0826.4,5.00,0.00,29.4,27.9,00.0,38.2,31.2,05.3,0000.0,0009.10,0003.52,0001.82
2022-06-21 03:08:00,,0826.5,5.00,0.00,29.4,28.1,00.0,38.2,31.3,05.2,0000.0,0008.73,0003.48,0001.82
2022-06-21 03:09:00,,0826.4,5.00,0.00,29.4,28.2,00.0,38.2,31.3,05.2,0000.0,0008.57,0003.47,0001.82
2022-06-21 03:10:00,,0826.4,5.00,0.00,29.4,28.3,00.0,38.2,31.3,05.2,0000.0,0008.26,0003.50,0001.83
2022-06-21 03:11:00,,0826.4,4.99,0.00,29.4,28.3,00.0,38.2,31.4,05.1,0000.0,0008.25,0003.50,0001.82
2022-06-21 03:12:00,,0826.5,5.00,0.00,29.5,28.4,00.0,38.2,31.4,05.1,0000.0,0009.02,0003.54,0001.83
2022-06-21 03:13:00,,0826.5,5.00,0.00,29.5,28.5,00.0,38.2,31.4,05.1,0000.0,0009.96,0003.55,0001.84
2022-06-21 03:14:00,,0826.4,5.01,0.00,29.5,28.5,00.0,38.3,31.4,05.1,0000.0,0010.26,0003.62,0001.85
2022-06-21 03:15:00,,0826.5,4.99,0.00,29.5,28.6,00.0,38.3,31.5,05.2,0000.0,0010.47,0003.62,0001.85
2022-06-21 03:16:00,,0826.5,4.99,0.00,29.6,28.6,00.0,38.3,31.5,05.1,0000.0,0010.26,0003.57,0001.83
2022-06-21 03:17:00,,0826.7,5.00,0.00,29.6,28.7,00.0,38.3,31.5,05.1,0000.0,0009.97,0003.54,0001.83
2022-06-21 03:18:00,,0826.7,5.00,0.00,29.6,28.7,00.0,38.3,31.6,05.1,0000.0,0009.92,0003.52,0001.82
2022-06-21 03:19:00,,0826.7,5.00,0.00,29.6,28.3,00.0,38.3,31.4,05.1,0000.0,0010.03,0003.49,0001.82
2022-06-21 03:20:00,,0826.7,5.00,0.00,29.6,27.6,00.0,38.2,31.3,05.1,0000.0,0009.96,0003.46,0001.82
2022-06-21 03:21:00,,0826.7,5.01,0.00,29.5,27.4,00.0,38.2,31.2,05.1,0000.0,0010.01,0003.43,0001.80
2022-06-21 03:22:00,,0826.8,5.00,0.00,29.5,27.4,00.0,38.2,31.2,05.1,0000.0,0010.39,0003.46,0001.79
2022-06-21 03:23:00,,0826.8,5.00,0.00,29.4,27.5,00.0,38.2,31.2,05.1,0000.0,0010.27,0003.44,0001.77
2022-06-21 03:24:00,,0826.8,4.99,0.00,29.4,27.6,00.0,38.2,31.2,05.2,0000.0,0009.39,0003.40,0001.75
2022-06-21 03:25:00,,0826.8,4.99,0.00,29.4,27.8,00.0,38.2,31.2,05.2,0000.0,0009.30,0003.35,0001.73
2022-06-21 03:26:00,,0826.8,4.99,0.00,29.4,27.9,00.0,38.2,31.3,05.1,0000.0,0009.22,0003.31,0001.72
2022-06-21 03:27:00,,0827.0,5.01,0.00,29.4,28.0,00.0,38.2,31.3,05.1,0000.0,0009.54,0003.35,0001.71
2022-06-21 03:28:00,,0826.9,5.00,0.00,29.4,28.1,00.0,38.2,31.3,05.1,0000.0,0009.95,0003.32,0001.69
2022-06-21 03:29:00,,0826.9,5.00,0.00,29.4,28.2,00.0,38.2,31.3,05.1,0000.0,0010.36,0003.31,0001.68
2022-06-21 03:30:00,,0826.8,4.98,0.00,29.5,28.3,00.0,38.2,31.4,05.1,0000.0,0010.20,0003.32,0001.68
2022-06-21 03:31:00,,0826.9,5.01,0.00,29.5,28.4,00.0,38.3,31.4,05.1,0000.0,0010.14,0003.31,0001.64
2022-06-21 03:32:00,,0826.8,5.00,0.00,29.5,28.4,00.0,38.3,31.4,05.1,0000.0,0010.12,0003.34,0001.64
2022-06-21 03:33:00,,0826.8,4.98,0.00,29.5,28.5,00.0,38.3,31.5,05.1,0000.0,0009.76,0003.31,0001.62
2022-06-21 03:34:00,,0826.9,5.00,0.00,29.6,28.6,00.0,38.3,31.5,05.1,0000.0,0009.22,0003.30,0001.60
2022-06-21 03:35:00,,0827.2,5.01,0.00,29.6,28.6,00.0,38.3,31.5,05.1,0000.0,0009.02,0003.28,0001.59
2022-06-21 03:36:00,,0827.2,5.00,0.00,29.6,28.6,00.0,38.3,31.5,05.1,0000.0,0008.94,0003.29,0001.58
2022-06-21 03:37:00,,0827.2,5.01,0.00,29.6,28.7,00.0,38.4,31.6,05.1,0000.0,0008.96,0003.35,0001.57
2022-06-21 03:38:00,,0827.2,5.00,0.00,29.7,28.7,00.0,38.4,31.6,05.1,0000.0,0008.61,0003.30,0001.55
2022-06-21 03:39:00,,0827.3,4.99,0.00,29.6,28.0,00.0,38.3,31.4,05.1,0000.0,0008.75,0003.28,0001.55
2022-06-21 03:40:00,,0827.4,5.01,0.00,29.6,27.4,00.0,38.3,31.3,05.1,0000.0,0008.74,0003.32,0001.53
2022-06-21 03:41:00,,0827.5,5.00,0.00,29.5,27.3,00.0,38.3,31.2,05.2,0000.0,0008.60,0003.26,0001.51
2022-06-21 03:42:00,,0827.5,4.99,0.00,29.5,27.4,00.0,38.3,31.2,05.2,0000.0,0008.78,0003.24,0001.51
2022-06-21 03:43:00,,0827.5,5.00,0.00,29.4,27.5,00.0,38.2,31.2,05.2,0000.0,0008.96,0003.25,0001.50
2022-06-21 03:44:00,,0827.5,5.01,0.00,29.4,27.6,00.0,38.2,31.2,05.3,0000.0,0009.20,0003.25,0001.51
2022-06-21 03:45:00,,0827.6,5.00,0.00,29.4,27.8,00.0,38.2,31.2,05.3,0000.0,0009.48,0003.20,0001.50
2022-06-21 03:46:00,,0827.5,4.99,0.00,29.4,27.9,00.0,38.2,31.3,05.3,0000.0,0009.40,0003.18,0001.49
2022-06-21 03:47:00,,0827.6,4.99,0.00,29.4,28.1,00.0,38.2,31.3,05.3,0000.0,0009.20,0003.11,0001.47
2022-06-21 03:48:00,,0827.8,5.00,0.00,29.4,28.2,00.0,38.3,31.3,05.4,0000.0,0008.94,0003.00,0001.46
2022-06-21 03:49:00,,0827.8,5.00,0.00,29.5,28.3,00.0,38.3,31.4,05.4,0000.0,0008.91,0002.94,0001.45
2022-06-21 03:50:00,,0827.8,5.02,0.00,29.5,28.4,00.0,38.3,31.4,05.3,0000.0,0008.39,0002.93,0001.45
2022-06-21 03:51:00,,0827.9,4.99,0.00,29.5,28.4,00.0,38.3,31.4,05.3,0000.0,0007.66,0002.84,0001.44
2022-06-21 03:52:00,,0827.7,4.99,0.00,29.5,28.5,00.0,38.3,31.5,05.4,0000.0,0007.61,0002.84,0001.44
2022-06-21 03:53:00,,0827.9,5.00,0.00,29.6,28.6,00.0,38.3,31.5,05.4,0000.0,0007.38,0002.85,0001.44
2022-06-21 03:54:00,,0827.9,5.01,0.00,29.6,28.6,00.0,38.3,31.5,05.4,0000.0,0006.77,0002.75,0001.42
2022-06-21 03:55:00,,0827.8,5.00,0.00,29.6,28.7,00.0,38.4,31.6,05.4,0000.0,0007.45,0002.69,0001.43
2022-06-21 03:56:00,,0827.8,5.01,0.00,29.6,28.8,00.0,38.4,31.6,05.4,0000.0,0006.92,0002.74,0001.43
2022-06-21 03:57:00,,0828.0,5.00,0.00,29.7,28.8,00.0,38.4,31.6,05.6,0000.0,0007.20,0002.85,0001.44
2022-06-21 03:58:00,,0828.0,5.00,0.00,29.7,28.6,00.0,38.4,31.6,05.6,0000.0,0007.15,0002.86,0001.45
2022-06-21 03:59:00,,0828.0,5.02,0.00,29.6,27.8,00.0,38.3,31.4,05.5,0000.0,0006.95,0002.83,0001.47
